STARLINK-32495, 62052

Orbit data source: Space-Track

STARLINK-32495, 62052 is a payload satellite owned by SpaceX/Seattle (US) in LEO that was launched on Thu, 21 Nov 2024 UTC via an FALCON 9 launch vehicle from the Air Force Eastern Test Range (AFETR). Payloads include a variety of satellites, spacecraft, and rockets equipped with specific instruments for various scientific and technological missions. These include communications satellites like Starlink; space stations such as the ISS; scientific satellites like the Hubble; Earth observation satellites from companies like Planet Labs, Umbra, and HawkEye 360; GPS; miniature CubeSats for education and research; and military/defense satellites.

Loading next visibility...
STARLINK-32495 details
Identifier
62052, 2024-216W
Orbit
LEO
Last TLE update1 day ago
Origin
Flag of USSpaceX/Seattle (US)
ManufacturerSpaceX/Seattle
MissionOperational spacecraft
Bus & MotorSTARLINK V2M, Unknown motor
Mass730 kg wet, ~700 kg dry
Launch date (UTC)
2024-11-21 (1 month ago)
Launch vehicle
FALCON 9
Launch site
Air Force Eastern Test Range (AFETR)
Object type
Payload
Rocket body
Debris
Shape & HBRUnknown
Radar Cross SectionLarge (>1 m²)

Expand to show TLE details & history

TLE from 1 day ago
0 STARLINK-32495
1 62052U 24216W   24360.37925765  .00000071  00000-0  89551-5 0  9990
2 62052  43.0005 238.5356 0001415 280.8432  79.2265 15.40694865  6442
Epoch: 2024-12-25T09:06Z
Definitive object data (Epoch: 2024-12-25T09:06:07.86Z)
Latitude-0.00005°
Longitude7.62894°
Altitude443.651 km
Speed7.648 km/s
True Right ascension15h 54m 08s
True Declination0° 00' 00"
Sunlit
Object was in daylight at TLE epoch
Visualization TLE readout
Latitude-12.67667°
Longitude-12.20894°
Altitude445.759 km
Speed7.646 km/s
Apparent Right ascension17h 14m 03s
Apparent Declination-36° 26' 56"
Sunlit
Object is in daylight
Visualization observer readout
Local Sidereal Time09:16:02
Azimuth106.056° ESE
Elevation-43.238°
Doppler factor1
Orbital elements
Apogee altitude446.979 km
Perigee altitude445.048 km
Semi-major axis6,824.15 km
Eccentricity0.0001415
Inclination43.0005°
RAAN238.5356°
Arg. of periapsis280.8432°
True anomaly79.24243°
Mean anomaly79.2265°
Eccentric anomaly79.23446°
Mean motion3.85008 °/min
BSTAR0.0000089551
Orbital period93.5 mins
Loading maneuver chart data...
Loading historical data...
Loading historical data...
Loading historical data...
Loading historical data...
Loading historical data...
Loading historical data...
Loading historical data...

STARLINK-32495 Visibility forecast

Observer location: undefined°, undefined

Span
Click to sort rows by Start time (UTC) header in descending order
Start Az.
Max El. time (UTC)
Max El. Az.
Max El.
End time (UTC)
End Az.
5 mins2024-12-26 19:33:56.745Z230.051° WSW2024-12-26 19:35:56.745Z188.415° SSW38.107°2024-12-26 19:38:56.745Z80.083° E
4 mins2024-12-26 21:12:56.745Z287.255° WNW2024-12-26 21:14:56.745Z24.956° NE37.141°2024-12-26 21:16:56.745Z66.657° ENE
5 mins2024-12-26 22:50:56.745Z297.663° NW2024-12-26 22:52:56.745Z22.419° NNE40.512°2024-12-26 22:55:56.745Z90.257° ESE
5 mins2024-12-27 00:28:56.745Z269.151° W2024-12-27 00:30:56.745Z202.046° SSW34.819°2024-12-27 00:33:56.745Z135.364° SSE
|